Anniston, AL

1:56 PM CST on November 13, 2019 (GMT -0600)
Anniston Metro

Weather History for KANB - September, 2019

Change the Weather History Date:

Tuesday, September 10, 2019

  Actual Average Record
Temperature  
Mean Temperature 83 °F 76 °F  
Max Temperature 94 °F 86 °F 99 °F (1954)
Min Temperature 71 °F 65 °F 40 °F (1903)
Degree Days  
Heating Degree Days 0    
Month to date heating degree days 0  
Since 1 July heating degree days 0  
Cooling Degree Days 16    
Growing Degree Days 31 (Base 50)    
Moisture  
Dew Point 68 °F    
Average Humidity 71    
Maximum Humidity 93    
Minimum Humidity 49    
Precipitation  
Precipitation 0.00 in 0.11 in 1.40 in (1989)
Month to date precipitation T 1.01  
Year to date precipitation 39.17 35.93  
Sea Level Pressure  
Sea Level Pressure 30.19 in    
Wind  
Wind Speed 4 mph (ESE)    
Max Wind Speed 14 mph    
Max Gust Speed 19 mph    
Visibility 10 miles    
Events Thunderstorm    
T = Trace of Precipitation, MM = Missing Value Source: NWS Daily Summary

Daily Weather History Graph

Daily Weather History Graph

Search for Another Location

Airport or City:

Astronomy

Sep. 10, 2019 Rise Set
Actual Time 6:23 AM CDT 6:57 PM CDT
Civil Twilight 5:58 AM CDT 7:22 PM CDT
Nautical Twilight 5:28 AM CDT 7:51 PM CDT
Astronomical Twilight 4:58 AM CDT 8:21 PM CDT
Moon 5:21 PM CDT (9/10) 3:01 AM CDT (9/10)
Length of Visible Light 13h 23m
Length of Day
12h 33m
Waxing Gibbous, 89% of the Moon is Illuminated
Sep 10
Waxing Gibbous
Sep 13
Full
Sep 21
Last Quarter
Sep 28
New
Oct 5
First Quarter

Hourly Weather History & Observations

Time (CDT) Temp. Heat Index Dew Point Humidity Pressure Visibility Wind Dir Wind Speed Gust Speed Precip Events Conditions
1:53 AM 73.9 °F - 69.1 °F 85% 30.13 in 10.0 mi ENE 3.5 mph - N/A   Clear
2:53 AM 73.0 °F - 69.1 °F 87% 30.13 in 10.0 mi Calm Calm - N/A   Clear
3:53 AM 73.0 °F - 69.1 °F 87% 30.14 in 10.0 mi Calm Calm - N/A   Clear
4:53 AM 72.0 °F - 69.1 °F 91% 30.15 in 9.0 mi ENE 3.5 mph - N/A   Clear
5:53 AM 71.1 °F - 69.1 °F 93% 30.17 in 9.0 mi Calm Calm - N/A   Clear
6:17 AM 71.1 °F - 69.1 °F 93% 30.21 in 9.0 mi Calm Calm - N/A   Partly Cloudy
6:53 AM 71.1 °F - 69.1 °F 93% 30.19 in 7.0 mi SE 3.5 mph - N/A   Clear
7:53 AM 75.9 °F - 71.1 °F 85% 30.21 in 9.0 mi ENE 4.6 mph - N/A   Clear
9:53 AM 84.9 °F 90.1 °F 71.1 °F 63% 30.22 in 10.0 mi Calm Calm - N/A   Clear
10:53 AM 89.1 °F 95.0 °F 71.1 °F 55% 30.21 in 10.0 mi Calm Calm - N/A   Clear
11:53 AM 91.9 °F 96.9 °F 69.1 °F 47% 30.20 in 10.0 mi Variable 3.5 mph - N/A   Mostly Cloudy
12:17 PM 90.0 °F 93.6 °F 68.0 °F 48% 30.23 in 10.0 mi SE 4.6 mph - N/A   Partly Cloudy
12:53 PM 91.0 °F 95.6 °F 69.1 °F 48% 30.19 in 10.0 mi SW 6.9 mph - N/A   Scattered Clouds
1:21 PM 91.0 °F 96.6 °F 70.0 °F 50% 30.21 in 10.0 mi SW 6.9 mph - N/A Thunderstorm Thunderstorm
1:53 PM 84.0 °F 85.8 °F 64.9 °F 53% 30.18 in 10.0 mi SSW 12.7 mph 19.6 mph N/A Thunderstorm Thunderstorm
2:00 PM 82.0 °F 83.8 °F 64.9 °F 56% 30.21 in 10.0 mi SSW 9.2 mph 19.6 mph N/A Thunderstorm Scattered Clouds
2:10 PM 82.9 °F 84.4 °F 64.0 °F 53% 30.22 in 10.0 mi South 9.2 mph - N/A Thunderstorm Thunderstorm
2:49 PM 82.4 °F 84.6 °F 66.2 °F 58% 30.22 in 10.0 mi Calm Calm - N/A Thunderstorm Scattered Clouds
2:53 PM 82.9 °F 85.0 °F 66.0 °F 56% 30.19 in 10.0 mi SE 3.5 mph - N/A Thunderstorm Mostly Cloudy
3:19 PM 81.0 °F 83.3 °F 66.9 °F 62% 30.20 in 10.0 mi ESE 5.8 mph - N/A   Scattered Clouds
3:53 PM 82.0 °F 84.1 °F 66.0 °F 58% 30.17 in 10.0 mi ENE 5.8 mph - N/A   Partly Cloudy
5:53 PM 80.1 °F 83.2 °F 70.0 °F 71% 30.15 in 10.0 mi East 5.8 mph - N/A   Clear
6:53 PM 78.1 °F - 71.1 °F 79% 30.17 in 10.0 mi Calm Calm - N/A   Clear
7:53 PM 78.1 °F - 71.1 °F 79% 30.17 in 10.0 mi East 3.5 mph - N/A   Clear
8:53 PM 79.0 °F - 70.0 °F 74% 30.19 in 10.0 mi NE 5.8 mph - N/A   Partly Cloudy
10:53 PM 78.1 °F - 68.0 °F 71% 30.20 in 10.0 mi NE 5.8 mph - N/A   Clear
11:53 PM 77.0 °F - 66.9 °F 71% 30.19 in 10.0 mi NE 5.8 mph - N/A   Clear